Location: *
(48.8489°N, 2.3218°E)
Time: 03:30:54
(UTC+00:00)

Cosmos 1745 Rocket - Pass Details

Date: 23 August 2019
Orbit: 952 x 999 km, 83.0° (Epoch: 21 September)

Event Time Altitude Azimuth Distance (km) Brightness Sun altitude
Rises 19:37:48 0° 353° (N) 3,648 7.5 -7.8°
Reaches altitude 10° 19:40:22 10° 357° (N) 2,695 6.8 -8.2°
Maximum altitude 19:46:25 58° 76° (ENE) 1,109 4.1 -9.1°
Drops below altitude 10° 19:52:26 10° 155° (SSE) 2,675 5.8 -9.9°
Enters shadow 19:53:38 - 158° (SSE) 3,122 6.2 -10.1°
